Flag for Switzerland Weather past 2 weeks in Adliswil, Zurich, Switzerland

Now
62 °F

Cool.


Feels Like: 62 °F
Forecast: 60 / 87 °F
Wind: 6 mph from Northeast

Location: Zurich Town / Ville.

Current Time: Aug 5, 2015 at 7:16:11 AM

Latest Report: Aug 5, 2015 at 5:00 AM


Visibility: N/A

Pressure: 30.07 "Hg

Humidity: 91%

Dew point: 59 °F

Location of AdliswilLocation

Historic Weather in Adliswil — Graph

°F

Adliswil temperature yesterday

Maximum temperature yesterday: 75 °F (at 12:00 PM)
Minimum temperature yesterday: 65 °F (at 5:00 AM)
Average temperature yesterday: 70 °F

Past Weeks' High & Low Weather Summary

 TemperatureHumidityPressure
High92 °F (Jul 21, 5:00 PM)98% (Jul 27, 2:00 AM)30.12 "Hg (Jul 27, 2:00 AM)
Low51 °F (Jul 31, 6:00 AM)29% (Aug 3, 7:00 PM)29.66 "Hg (Jul 24, 5:00 PM)
Average67 °F67%29.94 "Hg
* Reported Jul 21 4:00 AM — Aug 5 4:00 AM, Adliswil, Weather by CustomWeather, © 2015

Note: Actual official high and low records may vary slightly from our data, if they occured in-between our weather recording intervals... More about our weather records

Advertising

Adliswil weather history for previous 24 hours

 ConditionsComfort  
Time TempWeatherWind HumidityBarometerVisibility
4:00 AM
Wed, Aug 5
62 °FMild.1 mph87%30.08 "HgN/A
3:00 AM63 °FMild.3 mph84%30.09 "HgN/A
2:00 AM65 °FMild.2 mph80%30.09 "HgN/A
1:00 AM67 °FMild.2 mph76%30.09 "HgN/A
10:00 PM
Tue, Aug 4
69 °FMild.2 mph72%30.08 "HgN/A
9:00 PM70 °FMild.3 mph69%30.06 "HgN/A
8:00 PM71 °FMild.5 mph65%30.04 "HgN/A
7:00 PM73 °FMild.5 mph59%30.02 "HgN/A
6:00 PM72 °FMild.3 mph62%30.02 "HgN/A
5:00 PM72 °FMild.3 mph64%30.02 "HgN/A
4:00 PM71 °FMild.3 mph71%30.04 "HgN/A
3:00 PM70 °FMild.5 mph67%30.04 "HgN/A
2:00 PM70 °FMild.9 mph62%30.04 "HgN/A
1:00 PM73 °FMild.10 mph59%30.03 "HgN/A
12:00 PM75 °FMild.14 mph55%30.01 "HgN/A
11:00 AM74 °FMild.13 mph56%29.98 "HgN/A
10:00 AM72 °FMild.5 mph70%29.96 "HgN/A
9:00 AM70 °FMild.1 mph74%29.94 "HgN/A
8:00 AM68 °FMild.1 mph83%29.94 "HgN/A
7:00 AM66 °FMild.1 mph84%29.96 "HgN/A
Weather by CustomWeather, © 2015

See weather overviewHow to use our weather pages